[[{"header":{"parameterUnit":"m.s-1","parameterCategory":1,"la1":30.2991,"la2":30.254,"lo1":-89.0895,"lo2":-89.0444,"dy":0.0017,"dx":0.0017,"nx":28,"ny":28,"refTime":"2025-04-02T03:00:00:Z","depth":0,"parameterNumber":2,"parameterNumberName":"U-component_of_WINDS"},"data":[0,0,0,0,0,0,0,0,0,0,0,0,0,0,0,0,0,0,0,0,0,0,0,0,0,0,0,0,0,0,0,0,0,0,0,0,0,0,0,0,0,0,0,0,0,0,0,0,0,0,0,0,0,0,0,0,0,0,-4.4119,-4.4121,0,-4.4289,-4.4291,-4.4293,-4.4334,-4.4333,-4.4332,-4.4331,-4.4505,-4.4511,-4.4517,0,0,0,0,0,0,0,0,0,0,0,0,0,-4.3831,-4.3836,-4.4119,-4.4121,-4.4123,-4.4289,-4.4291,-4.4294,-4.4334,-4.4333,-4.4332,-4.433,-4.4504,-4.451,-4.4517,0,0,0,0,0,0,0,0,0,0,0,0,0,-4.3974,-4.3838,-4.4119,-4.4164,-4.4169,-4.4288,-4.4291,-4.4294,-4.4335,-4.4333,-4.4331,-4.433,-4.4501,-4.451,-4.4518,-4.4605,0,0,-4.4544,-4.4548,0,0,0,0,0,0,0,0,-4.3966,-4.3984,-4.4155,-4.4161,-4.4167,-4.4289,-4.4254,-4.4398,-4.4335,-4.4272,-4.4331,-4.4329,-4.4435,-4.4449,-4.4484,-4.4613,-4.462,-4.4545,-4.455,-4.4554,-4.4556,0,0,0,0,0,0,0,-4.3956,-4.3977,-4.4186,-4.4157,-4.4165,-4.4176,-4.4194,-4.4281,-4.4361,-4.4277,-4.4281,-4.43,-4.4438,-4.4476,-4.4489,-4.4623,-4.4545,-4.4552,-4.4558,-4.4561,-4.4832,-4.4834,0,0,0,0,0,0,-4.3938,-4.3969,-4.4181,-4.4192,-4.406,-4.4182,-4.4203,-4.4251,-4.436,-4.4375,-4.4301,-4.4301,-4.4462,-4.4479,-4.4495,-4.4603,-4.4554,-4.4562,-4.4567,-4.483,-4.4832,-4.4834,0,0,0,0,0,0,-4.3932,-4.3956,-4.4174,-4.4081,-4.411,-4.4189,-4.4243,-4.4256,-4.4294,-4.4378,-4.4393,-4.4326,-4.4461,-4.4483,-4.4577,-4.461,-4.4566,-4.4573,-4.4827,-4.483,-4.4833,-4.482,0,0,0,0,0,0,-4.3923,-4.3954,-4.3987,-4.4082,-4.4115,-4.4253,-4.4245,-4.426,-4.4308,-4.431,-4.4405,-4.4419,-4.4462,-4.4564,-4.4586,-4.4621,-4.458,-4.4825,-4.4829,-4.4832,-4.4818,-4.4822,-4.4826,0,0,0,0,0,-4.3913,-4.3977,-4.3989,-4.4014,-4.4158,-4.4255,-4.4274,-4.4322,-4.4311,-4.4345,-4.44,-4.4416,-4.4603,-4.4573,-4.4598,-4.4636,-4.4823,-4.4827,-4.4832,-4.4816,-4.4822,-4.4826,0,0,0,0,0,0,-4.3884,-4.399,-4.4004,-4.4101,-4.4169,-4.4261,-4.4306,-4.4326,-4.4398,-4.4396,-4.4453,-4.4474,-4.4565,-4.461,-4.4575,-4.4726,-4.4713,-4.4723,-4.4692,-4.4698,-4.4702,-4.4689,-4.4587,0,0,0,0,0,-4.3889,-4.3959,-4.4048,-4.4125,-4.4158,-4.4226,-4.427,-4.4301,-4.4374,-4.4403,-4.4464,-4.4534,-4.4608,-4.4656,-4.473,-4.4826,-4.4847,-4.4864,-4.4868,-4.4871,-4.4878,-4.4932,-4.4941,-4.485,-4.485,-4.4849,0,0,-4.39,-4.3967,-4.4007,-4.4121,-4.4177,-4.4247,-4.425,-4.4325,-4.4378,-4.4414,-4.4506,-4.4554,-4.4636,-4.4731,-4.4776,-4.4772,-4.4909,-4.4877,-4.4879,-4.4885,-4.4938,-4.4946,-4.4954,-4.4853,-4.4852,-4.4852,0,0,-4.3956,-4.4014,-4.4084,-4.414,-4.4225,-4.427,-4.4287,-4.4377,-4.441,-4.4504,-4.4532,-4.4597,-4.4725,-4.4781,-4.4827,-4.4906,-4.4923,-4.4928,-4.4949,-4.5001,-4.5008,-4.5015,-4.5042,-4.5051,-4.4936,-4.4936,-4.4936,0,-4.3959,-4.4066,-4.4117,-4.4191,-4.424,-4.4276,-4.4347,-4.44,-4.4504,-4.4537,-4.4531,-4.4692,-4.475,-4.4859,-4.4878,-4.4915,-4.4935,-4.4917,-4.5003,-4.501,-4.5017,-4.5044,-4.5054,-4.4936,-4.4936,-4.4936,-4.4936,0,-4.4065,-4.414,-4.4186,-4.4286,-4.434,-4.4412,-4.4474,-4.4524,-4.4551,-4.4597,-4.4692,-4.4763,-4.4851,-4.488,-4.4907,-4.4993,-4.4987,-4.4992,-4.4979,-4.5025,-4.5051,-4.5061,-4.4936,-4.4936,-4.4936,-4.4936,0,0,-4.4106,-4.4234,-4.425,-4.4295,-4.4392,-4.4451,-4.4525,-4.4611,-4.4652,-4.4724,-4.4787,-4.4895,-4.4899,-4.4951,-4.4985,-4.5031,-4.5088,-4.503,-4.5033,-4.5037,-4.5186,-4.5181,-4.5192,-4.5101,-4.5103,-4.5105,-4.5179,0,-4.4173,-4.4306,-4.4354,-4.4463,-4.4532,-4.4569,-4.4633,-4.47,-4.4745,-4.4811,-4.4862,-4.4936,-4.4938,-4.4969,-4.5016,-4.5071,-4.5118,-4.5067,-4.516,-4.5163,-4.5136,-4.5206,-4.5201,-4.5267,-4.519,-4.5191,-4.5193,0,-4.4268,-4.434,-4.4456,-4.4544,-4.4575,-4.4632,-4.4715,-4.4778,-4.4854,-4.4884,-4.4942,-4.4974,-4.5053,-4.5038,-4.5148,-4.5111,-4.5153,-4.5186,-4.519,-4.5199,-4.5179,-4.5215,-4.5289,-4.5299,-4.5209,-4.5208,-4.5207,0,-4.4285,-4.4411,-4.4496,-4.4535,-4.464,-4.4679,-4.4725,-4.48,-4.4849,-4.4922,-4.4954,-4.5036,-4.508,-4.5143,-4.5196,-4.5179,-4.5301,-4.529,-4.5327,-4.5326,-4.535,-4.5347,-4.543,-4.5379,-4.5379,-4.5379,-4.5379,0,-4.4353,-4.4422,-4.4505,-4.4558,-4.4636,-4.4692,-4.4769,-4.4817,-4.4884,-4.4946,-4.4984,-4.5042,-4.5109,-4.5176,-4.5218,-4.5302,-4.5323,-4.5349,-4.5359,-4.5345,-4.5341,-4.5371,-4.5367,-4.5381,-4.5381,-4.538,-4.538,0,-4.4384,-4.4443,-4.4538,-4.463,-4.4655,-4.4709,-4.4788,-4.4841,-4.4888,-4.4967,-4.4989,-4.5064,-4.5145,-4.5204,-4.5309,-4.5337,-4.5427,-4.5438,-4.5401,-4.5406,-4.544,-4.5435,-4.5543,-4.556,-4.5499,-4.55,-4.55,0,-4.4423,-4.4477,-4.4575,-4.4619,-4.4665,-4.4736,-4.4786,-4.4844,-4.4894,-4.4986,-4.5027,-4.5111,-4.5181,-4.5308,-4.5372,-4.5453,-4.5465,-4.5498,-4.5477,-4.5461,-4.5464,-4.546,-4.5465,-4.55,-4.55,-4.55,-4.5501,0,-4.4486,-4.4512,-4.4582,-4.4663,-4.4721,-4.4788,-4.4855,-4.4889,-4.4959,-4.5014,-4.5097,-4.5151,-4.5258,-4.534,-4.5427,-4.5475,-4.55,-4.5507,-4.552,-4.5505,-4.548,-4.5493,-4.5407,-4.5504,-4.5503,-4.5503,-4.5503,-4.5503,-4.4521,-4.4571,-4.4647,-4.4724,-4.4781,-4.4843,-4.4896,-4.4951,-4.5021,-4.5112,-4.5142,-4.5227,-4.5304,-4.5423,-4.5472,-4.554,-4.5539,-4.5558,-4.5563,-4.5566,-4.5564,-4.5471,-4.5557,-4.5557,-4.5557,-4.5557,-4.5557,0,-4.4585,-4.4636,-4.4706,-4.4799,-4.4859,-4.4877,-4.4953,-4.5002,-4.5077,-4.5146,-4.5213,-4.5309,-4.5389,-4.546,-4.5543,-4.5584,-4.5598,-4.5604,-4.5601,-4.5612,-4.5561,-4.5541,-4.5592,-4.5592,-4.5592,-4.5592,-4.5592,-4.5592,-4.4625,-4.4709,-4.4745,-4.4858,-4.4909,-4.4992,-4.5034,-4.5091,-4.5146,-4.5251,-4.5317,-4.5363,-4.5433,-4.5522,-4.5596,-4.5615,-4.5644,-4.5647,-4.5668,-4.562,-4.5615,-4.5611,-4.5592,-4.5653,-4.5653,-4.5713,-4.5714,-4.5714]},{"header":{"parameterUnit":"m.s-1","parameterCategory":1,"la1":30.2991,"la2":30.254,"lo1":-89.0895,"lo2":-89.0444,"dy":0.0017,"dx":0.0017,"nx":28,"ny":28,"refTime":"2025-04-02T03:00:00:Z","depth":0,"parameterNumber":3,"parameterNumberName":"V-component_of_WINDS"},"data":[0,0,0,0,0,0,0,0,0,0,0,0,0,0,0,0,0,0,0,0,0,0,0,0,0,0,0,0,0,0,0,0,0,0,0,0,0,0,0,0,0,0,0,0,0,0,0,0,0,0,0,0,0,0,0,0,0,0,5.513,5.5131,0,5.5239,5.524,5.5241,5.5242,5.5241,5.524,5.5238,5.5348,5.5352,5.5356,0,0,0,0,0,0,0,0,0,0,0,0,0,5.4924,5.4927,5.513,5.5132,5.5133,5.5239,5.524,5.5242,5.5243,5.5241,5.5239,5.5238,5.5346,5.5351,5.5356,0,0,0,0,0,0,0,0,0,0,0,0,0,5.5021,5.4929,5.513,5.5146,5.5149,5.5238,5.524,5.5242,5.5243,5.5241,5.5239,5.5237,5.5345,5.5351,5.5357,5.5437,0,0,5.5376,5.5379,0,0,0,0,0,0,0,0,5.5015,5.5028,5.5142,5.5145,5.5148,5.5225,5.5207,5.5307,5.5243,5.5207,5.5238,5.5236,5.5308,5.5317,5.5342,5.5442,5.5447,5.5377,5.5381,5.5383,5.5385,0,0,0,0,0,0,0,5.5009,5.5024,5.5173,5.5144,5.5148,5.5148,5.516,5.5226,5.5268,5.521,5.521,5.5223,5.531,5.5336,5.5345,5.5448,5.5377,5.5382,5.5386,5.5388,5.5622,5.5624,0,0,0,0,0,0,5.4999,5.5018,5.517,5.5176,5.5075,5.5153,5.5166,5.5202,5.5267,5.5275,5.5225,5.5223,5.5327,5.5338,5.5349,5.5449,5.5383,5.5389,5.5393,5.562,5.5623,5.5625,0,0,0,0,0,0,5.4994,5.5012,5.5165,5.5097,5.5117,5.5159,5.52,5.5206,5.5232,5.5279,5.5286,5.5245,5.5325,5.534,5.5416,5.5453,5.5392,5.5398,5.5617,5.5621,5.5624,5.5648,0,0,0,0,0,0,5.4988,5.5011,5.5041,5.5098,5.5121,5.5231,5.5202,5.5209,5.5243,5.5242,5.5299,5.5306,5.5325,5.5406,5.5422,5.546,5.5403,5.5614,5.5619,5.5623,5.5644,5.5652,5.5659,0,0,0,0,0,5.4981,5.5043,5.5043,5.5061,5.516,5.5233,5.5245,5.5266,5.5246,5.5278,5.5308,5.5305,5.5446,5.5414,5.5432,5.5472,5.5612,5.5617,5.5622,5.5641,5.5651,5.5659,0,0,0,0,0,0,5.4988,5.5051,5.5051,5.5133,5.5178,5.5233,5.5273,5.5275,5.5326,5.5322,5.5345,5.5358,5.5434,5.546,5.5424,5.5555,5.5526,5.5536,5.5534,5.5544,5.5551,5.5544,5.5408,0,0,0,0,0,5.4999,5.5054,5.5105,5.5172,5.5195,5.523,5.5263,5.5275,5.5321,5.534,5.5375,5.5421,5.5476,5.5511,5.5564,5.5648,5.5661,5.5685,5.5692,5.5698,5.5706,5.5755,5.5766,5.5643,5.5643,5.5643,0,0,5.5023,5.5064,5.5096,5.5175,5.5211,5.5267,5.5246,5.5305,5.5347,5.5349,5.5424,5.5451,5.5503,5.5584,5.5622,5.5609,5.5743,5.5705,5.5709,5.5714,5.5762,5.5773,5.5783,5.5647,5.5646,5.5646,0,0,5.5095,5.5131,5.5192,5.5229,5.5284,5.5308,5.5322,5.5378,5.5397,5.5472,5.5475,5.5525,5.5618,5.5656,5.5687,5.5776,5.5776,5.5793,5.5831,5.5879,5.5888,5.5897,5.5931,5.5942,5.58,5.58,5.58,0,5.5117,5.5202,5.5223,5.5284,5.5319,5.5324,5.5387,5.5422,5.5491,5.5515,5.55,5.5619,5.5654,5.5745,5.5768,5.5792,5.5811,5.5787,5.5885,5.5894,5.5903,5.5935,5.5947,5.5802,5.5802,5.5802,5.5802,0,5.5228,5.5287,5.5329,5.5398,5.5438,5.5499,5.553,5.5568,5.5577,5.5602,5.568,5.5723,5.5785,5.5808,5.5816,5.5901,5.5891,5.588,5.5853,5.5916,5.5947,5.5959,5.5805,5.5804,5.5804,5.5803,0,0,5.5307,5.5388,5.5403,5.5436,5.5498,5.5544,5.5605,5.5668,5.5701,5.5748,5.5802,5.5882,5.5873,5.5909,5.5922,5.5963,5.6034,5.5948,5.5949,5.5964,5.6132,5.6141,5.6154,5.6033,5.6036,5.6038,5.6128,0,5.5387,5.5498,5.552,5.5617,5.5672,5.5679,5.5733,5.5778,5.5803,5.5854,5.5882,5.5939,5.5922,5.5944,5.5985,5.6016,5.6068,5.601,5.6084,5.6087,5.6072,5.617,5.618,5.6263,5.614,5.6142,5.6143,0,5.5495,5.5548,5.565,5.5707,5.5731,5.578,5.584,5.5888,5.5939,5.5955,5.5996,5.6005,5.607,5.6039,5.6131,5.6091,5.6122,5.6143,5.6146,5.6155,5.612,5.6183,5.6289,5.6302,5.6162,5.6161,5.6159,0,5.5545,5.5641,5.5716,5.5743,5.581,5.5845,5.5874,5.5923,5.596,5.6012,5.6037,5.6095,5.6128,5.6173,5.6198,5.6173,5.6289,5.6259,5.6305,5.6304,5.6329,5.6328,5.6444,5.6347,5.6347,5.6347,5.6346,0,5.5634,5.5697,5.574,5.5785,5.5857,5.5881,5.5951,5.598,5.6024,5.6076,5.6085,5.6133,5.6163,5.6216,5.6236,5.631,5.6324,5.6339,5.6344,5.6339,5.6338,5.6361,5.6357,5.635,5.6349,5.6349,5.6348,0,5.5702,5.5733,5.5815,5.5873,5.5889,5.5939,5.5989,5.6034,5.606,5.6126,5.6143,5.6183,5.6247,5.6276,5.6354,5.6367,5.6452,5.6452,5.6435,5.6437,5.6482,5.6478,5.6618,5.6639,5.6527,5.6528,5.6529,0,5.5757,5.5806,5.587,5.5906,5.5937,5.5994,5.6032,5.6058,5.6098,5.6161,5.6199,5.6262,5.6315,5.6416,5.6452,5.6512,5.6515,5.656,5.6524,5.6519,5.6518,5.6515,5.6521,5.6567,5.6568,5.6569,5.657,0,5.5852,5.5865,5.592,5.5982,5.6027,5.6076,5.6124,5.6153,5.6187,5.6231,5.6297,5.6337,5.6418,5.6482,5.6545,5.6575,5.6579,5.6581,5.6595,5.6591,5.658,5.6589,5.6455,5.6577,5.6577,5.6576,5.6576,5.6575,5.5917,5.5961,5.6014,5.6075,5.6115,5.616,5.6206,5.6238,5.6294,5.6362,5.6374,5.6444,5.6495,5.658,5.6613,5.6669,5.6658,5.6678,5.6683,5.6688,5.6692,5.6571,5.668,5.668,5.6679,5.6679,5.6679,0,5.6014,5.6048,5.6105,5.6173,5.6222,5.6221,5.6275,5.6316,5.6377,5.6425,5.6477,5.6553,5.6616,5.6658,5.6721,5.6757,5.6761,5.6773,5.6772,5.6779,5.6696,5.6679,5.677,5.677,5.677,5.677,5.677,5.677,5.6071,5.6147,5.6167,5.6263,5.6297,5.6367,5.6398,5.644,5.6478,5.6563,5.6616,5.6643,5.6689,5.6756,5.6813,5.6824,5.6848,5.6861,5.6872,5.6794,5.6785,5.6776,5.6759,5.6866,5.6866,5.695,5.6951,5.6952]}]]